N67322 KPAO-KSNS

Flight info

Callsign N67322
Flight time 0h 39m
Altitude 5000
Route SNS
Aircraft C152/L-VGD/C

Departure

Time 2026-04-19 03:12
Airport Palo Alto Airport (KPAO)

Arrival

Time 2026-04-19 03:52
Airport Salinas Municipal Airport (KSNS)
Time Latitude Longitude Altitude Speed Heading
2026-04-19 03:12 37.49841 -122.02956 2966 ft 121 kts 18°
2026-04-19 03:12 37.50651 -122.02634 2966 ft 121 kts 18°
2026-04-19 03:13 37.51457 -122.02313 2966 ft 121 kts 18°
2026-04-19 03:13 37.52280 -122.01984 2967 ft 121 kts 18°
2026-04-19 03:13 37.53099 -122.01659 2968 ft 121 kts 18°
2026-04-19 03:13 37.53966 -122.01321 2967 ft 121 kts 18°
2026-04-19 03:14 37.54819 -122.00990 2968 ft 120 kts 18°
2026-04-19 03:14 37.55689 -122.00658 2968 ft 120 kts 18°
2026-04-19 03:14 37.56519 -122.00337 2968 ft 120 kts 18°
2026-04-19 03:14 37.57340 -122.00015 2981 ft 119 kts 18°
2026-04-19 03:15 37.58198 -121.99679 2986 ft 119 kts 18°
2026-04-19 03:15 37.58975 -121.99352 3107 ft 110 kts 28°
2026-04-19 03:15 37.59510 -121.98715 3214 ft 105 kts 62°
2026-04-19 03:15 37.59660 -121.97850 3327 ft 100 kts 98°
2026-04-19 03:16 37.59333 -121.97137 3466 ft 94 kts 144°
2026-04-19 03:16 37.58719 -121.96958 3614 ft 91 kts 184°
2026-04-19 03:16 37.58091 -121.97105 3761 ft 89 kts 190°
2026-04-19 03:16 37.57486 -121.97306 3909 ft 88 kts 193°
2026-04-19 03:17 37.56900 -121.97535 4055 ft 86 kts 194°
2026-04-19 03:17 37.56329 -121.97762 4203 ft 85 kts 193°
2026-04-19 03:17 37.55772 -121.97987 4347 ft 83 kts 193°
2026-04-19 03:17 37.55220 -121.98212 4494 ft 82 kts 193°
2026-04-19 03:18 37.54680 -121.98435 4640 ft 80 kts 193°
2026-04-19 03:18 37.54153 -121.98659 4786 ft 79 kts 193°
2026-04-19 03:18 37.53634 -121.98883 4931 ft 77 kts 193°
2026-04-19 03:18 37.53097 -121.99112 4986 ft 86 kts 194°
2026-04-19 03:19 37.52490 -121.99361 4993 ft 96 kts 193°
2026-04-19 03:19 37.51830 -121.99628 4990 ft 102 kts 192°
2026-04-19 03:19 37.51142 -121.99502 4989 ft 103 kts 147°
2026-04-19 03:19 37.50609 -121.98880 4987 ft 106 kts 134°
2026-04-19 03:20 37.50116 -121.98179 4986 ft 107 kts 133°
2026-04-19 03:20 37.49622 -121.97465 4985 ft 107 kts 132°
2026-04-19 03:20 37.49131 -121.96755 4986 ft 108 kts 132°
2026-04-19 03:20 37.48634 -121.96042 4987 ft 108 kts 132°
2026-04-19 03:21 37.48128 -121.95315 4987 ft 108 kts 132°
2026-04-19 03:21 37.47628 -121.94599 4989 ft 109 kts 132°
2026-04-19 03:21 37.47131 -121.93883 4988 ft 109 kts 132°
2026-04-19 03:21 37.46634 -121.93160 4989 ft 109 kts 132°
2026-04-19 03:22 37.46121 -121.92413 4989 ft 109 kts 132°
2026-04-19 03:22 37.45626 -121.91689 4989 ft 108 kts 132°
2026-04-19 03:22 37.45137 -121.90973 4990 ft 108 kts 132°
2026-04-19 03:22 37.44645 -121.90253 4990 ft 108 kts 132°
2026-04-19 03:23 37.44149 -121.89529 4992 ft 108 kts 132°
2026-04-19 03:23 37.43655 -121.88808 4992 ft 108 kts 132°
2026-04-19 03:23 37.43158 -121.88088 4993 ft 108 kts 132°
2026-04-19 03:23 37.42666 -121.87382 4992 ft 108 kts 132°
2026-04-19 03:24 37.42161 -121.86677 4993 ft 108 kts 136°
2026-04-19 03:24 37.41577 -121.86075 4994 ft 108 kts 142°
2026-04-19 03:24 37.40979 -121.85497 4995 ft 107 kts 142°
2026-04-19 03:24 37.40381 -121.84920 4994 ft 107 kts 142°
2026-04-19 03:25 37.39790 -121.84351 4994 ft 108 kts 142°
2026-04-19 03:25 37.39190 -121.83769 4994 ft 108 kts 142°
2026-04-19 03:25 37.38596 -121.83192 4996 ft 108 kts 142°
2026-04-19 03:25 37.38001 -121.82614 4995 ft 108 kts 142°
2026-04-19 03:26 37.37400 -121.82034 4996 ft 107 kts 142°
2026-04-19 03:26 37.36812 -121.81465 4996 ft 107 kts 142°
2026-04-19 03:26 37.36212 -121.80890 4996 ft 107 kts 142°
2026-04-19 03:26 37.35618 -121.80323 4997 ft 107 kts 142°
2026-04-19 03:27 37.35026 -121.79761 4997 ft 107 kts 142°
2026-04-19 03:27 37.34427 -121.79191 4998 ft 107 kts 142°
2026-04-19 03:27 37.33833 -121.78628 5003 ft 107 kts 142°
2026-04-19 03:27 37.33239 -121.78065 5005 ft 107 kts 142°
2026-04-19 03:28 37.32637 -121.77496 5007 ft 107 kts 142°
2026-04-19 03:28 37.32032 -121.76923 5008 ft 107 kts 142°
2026-04-19 03:28 37.31419 -121.76345 5006 ft 108 kts 142°
2026-04-19 03:28 37.30825 -121.75783 5004 ft 108 kts 142°
2026-04-19 03:29 37.30218 -121.75209 5003 ft 108 kts 142°
2026-04-19 03:29 37.29620 -121.74646 5001 ft 108 kts 142°
2026-04-19 03:29 37.29012 -121.74074 5000 ft 108 kts 142°
2026-04-19 03:29 37.28405 -121.73504 5001 ft 108 kts 142°
2026-04-19 03:30 37.27800 -121.72935 5002 ft 108 kts 142°
2026-04-19 03:30 37.27204 -121.72374 5001 ft 108 kts 142°
2026-04-19 03:30 37.26603 -121.71807 5001 ft 108 kts 142°
2026-04-19 03:30 37.26001 -121.71240 5001 ft 107 kts 142°
2026-04-19 03:31 37.25399 -121.70673 5001 ft 108 kts 142°
2026-04-19 03:31 37.24794 -121.70103 5002 ft 108 kts 142°
2026-04-19 03:31 37.24191 -121.69535 5005 ft 108 kts 142°
2026-04-19 03:31 37.23586 -121.68966 5008 ft 109 kts 142°
2026-04-19 03:32 37.22971 -121.68387 5007 ft 109 kts 142°
2026-04-19 03:32 37.22365 -121.67815 5006 ft 109 kts 142°
2026-04-19 03:32 37.21749 -121.67236 5002 ft 109 kts 142°
2026-04-19 03:32 37.21139 -121.66662 5008 ft 109 kts 142°
2026-04-19 03:33 37.20531 -121.66091 5005 ft 109 kts 142°
2026-04-19 03:33 37.19922 -121.65518 5008 ft 109 kts 142°
2026-04-19 03:33 37.19310 -121.64946 5004 ft 108 kts 142°
2026-04-19 03:33 37.18708 -121.64384 5006 ft 107 kts 142°
2026-04-19 03:34 37.18106 -121.63826 5008 ft 107 kts 142°
2026-04-19 03:34 37.17502 -121.63265 5008 ft 108 kts 142°
2026-04-19 03:34 37.16898 -121.62706 5011 ft 108 kts 142°
2026-04-19 03:34 37.16284 -121.62137 5009 ft 109 kts 142°
2026-04-19 03:35 37.15656 -121.61580 4999 ft 110 kts 148°
2026-04-19 03:35 37.14935 -121.61250 4991 ft 112 kts 175°
2026-04-19 03:35 37.14165 -121.61424 4994 ft 113 kts 191°
2026-04-19 03:35 37.13394 -121.61704 4993 ft 114 kts 192°
2026-04-19 03:36 37.12615 -121.61998 4989 ft 115 kts 193°
2026-04-19 03:36 37.11833 -121.62296 4992 ft 115 kts 193°
2026-04-19 03:36 37.11065 -121.62588 4990 ft 115 kts 192°
2026-04-19 03:36 37.10264 -121.62896 4988 ft 115 kts 192°
2026-04-19 03:37 37.09485 -121.63202 4987 ft 114 kts 193°
2026-04-19 03:37 37.08712 -121.63505 4986 ft 114 kts 193°
2026-04-19 03:37 37.07945 -121.63805 4985 ft 114 kts 192°
2026-04-19 03:37 37.07188 -121.64098 4987 ft 113 kts 193°
2026-04-19 03:38 37.06422 -121.64393 4986 ft 113 kts 192°
2026-04-19 03:38 37.05664 -121.64687 4986 ft 113 kts 193°
2026-04-19 03:38 37.04911 -121.64977 4985 ft 113 kts 192°
2026-04-19 03:38 37.04139 -121.65277 4984 ft 113 kts 193°
2026-04-19 03:39 37.03376 -121.65569 4989 ft 113 kts 192°
2026-04-19 03:39 37.02622 -121.65859 4991 ft 114 kts 193°
2026-04-19 03:39 37.01858 -121.66152 4993 ft 114 kts 193°
2026-04-19 03:39 37.01091 -121.66445 4993 ft 115 kts 192°
2026-04-19 03:40 37.00323 -121.66742 4994 ft 115 kts 193°
2026-04-19 03:40 36.99556 -121.67037 4992 ft 115 kts 192°
2026-04-19 03:40 36.98793 -121.67336 4991 ft 115 kts 193°
2026-04-19 03:40 36.98018 -121.67638 4989 ft 115 kts 192°
2026-04-19 03:41 36.97256 -121.67942 4986 ft 114 kts 193°
2026-04-19 03:41 36.96499 -121.68239 4989 ft 113 kts 192°
2026-04-19 03:41 36.95741 -121.68539 4995 ft 113 kts 193°
2026-04-19 03:41 36.94956 -121.68842 4998 ft 114 kts 193°
2026-04-19 03:42 36.94200 -121.69133 4991 ft 114 kts 193°
2026-04-19 03:42 36.93402 -121.69435 4992 ft 114 kts 192°
2026-04-19 03:42 36.92600 -121.69743 4867 ft 122 kts 193°
2026-04-19 03:42 36.91740 -121.70061 4690 ft 128 kts 193°
2026-04-19 03:43 36.90828 -121.70394 4508 ft 131 kts 192°
2026-04-19 03:43 36.89941 -121.70714 4332 ft 132 kts 193°
2026-04-19 03:43 36.88982 -121.71059 4128 ft 124 kts 193°
2026-04-19 03:43 36.88152 -121.71360 3950 ft 122 kts 193°
2026-04-19 03:44 36.87338 -121.71653 3772 ft 121 kts 193°
2026-04-19 03:44 36.86533 -121.71929 3596 ft 120 kts 192°
2026-04-19 03:44 36.85724 -121.72205 3419 ft 119 kts 193°
2026-04-19 03:44 36.84926 -121.72467 3244 ft 119 kts 193°
2026-04-19 03:45 36.84138 -121.72720 3195 ft 110 kts 192°
2026-04-19 03:45 36.83405 -121.72926 3187 ft 103 kts 190°
2026-04-19 03:45 36.82712 -121.73080 3182 ft 98 kts 176°
2026-04-19 03:45 36.82062 -121.72806 3187 ft 95 kts 152°
2026-04-19 03:46 36.81488 -121.72405 3186 ft 93 kts 148°
2026-04-19 03:46 36.80933 -121.71991 3186 ft 92 kts 147°
2026-04-19 03:46 36.80379 -121.71568 3188 ft 92 kts 147°
2026-04-19 03:46 36.79824 -121.71140 3138 ft 97 kts 147°
2026-04-19 03:47 36.79225 -121.70675 3028 ft 103 kts 147°
2026-04-19 03:47 36.78591 -121.70180 2898 ft 108 kts 147°
2026-04-19 03:47 36.77914 -121.69652 2752 ft 111 kts 147°
2026-04-19 03:47 36.77243 -121.69128 2599 ft 113 kts 147°
2026-04-19 03:48 36.76553 -121.68587 2437 ft 115 kts 147°
2026-04-19 03:48 36.75861 -121.68046 2272 ft 116 kts 147°
2026-04-19 03:48 36.75155 -121.67493 2103 ft 118 kts 147°
2026-04-19 03:48 36.74453 -121.66944 1935 ft 119 kts 147°
2026-04-19 03:49 36.73709 -121.66361 1757 ft 121 kts 146°
2026-04-19 03:49 36.72992 -121.65778 1581 ft 122 kts 147°
2026-04-19 03:49 36.72220 -121.65172 1395 ft 123 kts 147°
2026-04-19 03:49 36.71482 -121.64597 1215 ft 119 kts 148°
2026-04-19 03:50 36.70772 -121.64043 1044 ft 114 kts 148°
2026-04-19 03:50 36.70063 -121.63490 875 ft 111 kts 148°
2026-04-19 03:50 36.69407 -121.62978 721 ft 109 kts 148°
2026-04-19 03:50 36.68762 -121.62476 591 ft 94 kts 148°
2026-04-19 03:51 36.68225 -121.62058 448 ft 84 kts 149°
2026-04-19 03:51 36.67731 -121.61672 333 ft 70 kts 149°
2026-04-19 03:51 36.67322 -121.61353 223 ft 62 kts 149°
2026-04-19 03:51 36.66959 -121.61062 141 ft 57 kts 150°
2026-04-19 03:52 36.66651 -121.60816 76 ft 13 kts 150°
2026-04-19 03:52 36.66646 -121.60812 76 ft 0 kts 149°